User: anonymous   Login
Location: Barcelona
(41.3830°N, 2.1830°E)
Time: 08:57:22
(UTC+01:00)
Language:

BEESAT 2 - Orbit

View from above orbital plane
View from above orbital plane
View from above satellite
View from above satellite

Ground track
Ground track

The orbit data is extracted from the following two-line orbital elements,

1 39136U 13015G   19080.90270758 +.00000674 +00000-0 +44125-4 0  9995
2 39136 064.8707 328.6724 0011497 295.9237 064.0703 15.16714783326315
Epoch (UTC): 21 March 2019 21:39:53
Eccentricity: 0.0011497
inclination: 64.8707°
perigee height: 508 km
apogee height: 524 km
right ascension of ascending node: 328.6724°
argument of perigee: 295.9237°
revolutions per day: 15.16714783
mean anomaly at epoch: 64.0703°
orbit number at epoch: 32631

The dashed part of the orbit path shows where the satellite is in the earth's shadow,  

DLR